Showing default

LEMUR 2 AHMED-ASRAR, 60576

Orbit data source: Space-Track

LEMUR 2 AHMED-ASRAR, 60576 is an American payload satellite in SSO that was launched on Fri, 16 Aug 2024 UTC via an FALCON 9 launch vehicle from the Air Force Western Test Range (AFWTR). Payload-class satellites include a variety of spacecraft equipped with specific instruments for various scientific and technological missions. These include communications satellites like Starlink; space stations such as the ISS; scientific satellites like the Hubble; Earth observation satellites from companies like Planet Labs, Umbra, and HawkEye 360; GPS; miniature CubeSats for education and research; and military/defense satellites.

Loading next visibility...
Identifier
60576, 2024-149DN
Orbit
SSO
Country
Flag of USUS
Related business
Manufacturer
Spire/Glasgow
Mission
Operational Commercial Com/MetRO
Bus & Motor
CUBESAT 3U, Unknown motor
Mass
7.6 kg wet, 7.6 kg dry
Launch date (UTC)
2024-08-16 (2 years ago)
Launch vehicle
FALCON 9
Launch site
Air Force Western Test Range (AFWTR)
Object type
Payload
Rocket body
Debris
Shape & HBR
Box + 2 Pan, 0.5 m
Radar Cross Section
0.063 m², Small (<0.1 m²)

Expand to show TLE details & history
Last TLE update: 7 hours ago

TLE from 7 hours ago
0 LEMUR 2 AHMED-ASRAR
1 60576U 24149DN  26126.80610508  .00009557  00000-0  56342-3 0  9998
2 60576  97.6988 211.4544 0003415 129.4516 230.7017 15.11787166 94315
Epoch: 2026-05-06T19:20Z
TLE epoch observation values (Epoch: 2026-05-06T19:20:47.478Z)
Latitude
0.00001°
Longitude
56.59526°
Altitude
535.316 km
Speed
7.594 km/s
True Right ascension
14h 05m 49s
True Declination
0° 00' 00"
Sunlit
Object was in full shadow at epoch
Visualization orbit readout
Latitude
Unknown
Longitude
Unknown
Altitude
Unknown
Speed
Unknown
Apparent Right ascension
Unknown
Apparent Declination
Unknown
Sunlit
N/A
Visualization observer readout
Local Sidereal Time
10:26:59
Azimuth
Unknown
Elevation
Unknown
Doppler factor
Unknown
Orbital elements
Apogee altitude
530.098 km
Perigee altitude
525.381 km
Semi-major axis
6,905.876 km
Eccentricity
0.00034
Inclination
97.6988°
RAAN
211.4544°
Arg. of periapsis
129.4516°
True anomaly
230.67142°
Mean anomaly
230.7017°
Eccentric anomaly
230.68656°
Mean motion
3.78194 °/min
Orbital period
95.19 mins
BSTAR
0.00056342
Loading maneuver chart data...
Computing Atmospheric mass density...
Loading historical data...
Loading historical data...
Loading historical data...
Loading historical data...
Loading historical data...
Loading historical data...
Loading historical data...

Documentation

Showing up to 5 results
|